[[{"header":{"parameterUnit":"m.s-1","parameterCategory":2,"la1":30.2991,"la2":30.254,"lo1":-89.0895,"lo2":-89.0444,"dy":0.0017,"dx":0.0017,"nx":28,"ny":28,"refTime":"2024-10-10T21:00:00:Z","depth":"0","parameterNumber":2,"parameterNumberName":"U-component_of_CURRENTS"},"data":[0,0,0,0,0,0,0,0,0,0,0,0,0,0,0,0,0,0,0,0,0,0,0,0,0,0,0,0,0,0,0,0,0,0,0,0,0,0,0,0,0,0,0,0,0,0,0,0,0,0,0,0,0,0,0,0,0,0,0.3629,0.3628,0,0.3477,0.3475,0.3473,0.3344,0.3343,0.3342,0.3341,0.3149,0.3145,0.3141,0,0,0,0,0,0,0,0,0,0,0,0,0,0.3696,0.3696,0.3629,0.3628,0.3626,0.3477,0.3475,0.3472,0.3344,0.3343,0.3342,0.334,0.3151,0.3146,0.3141,0,0,0,0,0,0,0,0,0,0,0,0,0,0.3615,0.3696,0.363,0.3547,0.3538,0.3478,0.3475,0.3472,0.3345,0.3343,0.3341,0.334,0.3152,0.3146,0.314,0.3135,0,0,0.3121,0.3119,0,0,0,0,0,0,0,0,0.362,0.3612,0.3561,0.3552,0.3543,0.3431,0.3428,0.3358,0.3345,0.3415,0.3341,0.3339,0.3243,0.3229,0.32,0.3126,0.3118,0.3121,0.3117,0.3115,0.3113,0,0,0,0,0,0,0,0.3626,0.3618,0.3565,0.3559,0.3548,0.3479,0.3466,0.3413,0.3337,0.3408,0.34,0.3388,0.3237,0.3206,0.3195,0.3115,0.3121,0.3116,0.3112,0.3109,0.3072,0.3075,0,0,0,0,0,0,0.3659,0.3624,0.357,0.3561,0.3582,0.348,0.3465,0.3466,0.3338,0.3318,0.339,0.3383,0.3218,0.3202,0.3187,0.3203,0.3115,0.3109,0.3105,0.307,0.3073,0.3076,0,0,0,0,0,0,0.3662,0.3657,0.3577,0.359,0.3576,0.3481,0.3482,0.3464,0.3438,0.3325,0.3303,0.3385,0.3216,0.3196,0.3153,0.3193,0.3106,0.3101,0.3066,0.3071,0.3074,0.3215,0,0,0,0,0,0,0.3664,0.3659,0.3679,0.3594,0.3577,0.3558,0.3483,0.3462,0.3435,0.3424,0.3313,0.3293,0.3213,0.3163,0.3147,0.3183,0.3096,0.3063,0.3068,0.3073,0.3207,0.3223,0.3237,0,0,0,0,0,0.3668,0.3699,0.3681,0.3675,0.3605,0.3559,0.3545,0.3468,0.3437,0.3437,0.3363,0.3297,0.3185,0.316,0.3141,0.3176,0.306,0.3067,0.3073,0.32,0.322,0.3237,0,0,0,0,0,0,0.3736,0.3687,0.3665,0.3681,0.3635,0.3539,0.3531,0.3489,0.343,0.3412,0.3314,0.329,0.3273,0.3214,0.319,0.3186,0.3119,0.3122,0.3223,0.3241,0.3256,0.3275,0.3091,0,0,0,0,0,0.3767,0.3785,0.3715,0.3735,0.3709,0.3629,0.3604,0.355,0.3484,0.3455,0.3391,0.3327,0.3285,0.3254,0.3203,0.3192,0.3172,0.3211,0.3226,0.3239,0.3246,0.3258,0.3275,0.3096,0.3095,0.3095,0,0,0.3806,0.378,0.3793,0.3753,0.3702,0.3678,0.3608,0.3572,0.3568,0.3446,0.3433,0.3375,0.3296,0.3282,0.3271,0.3234,0.3289,0.3247,0.3258,0.3258,0.3266,0.3283,0.3298,0.31,0.3099,0.3098,0,0,0.3867,0.386,0.3875,0.3835,0.3771,0.3728,0.373,0.3649,0.3629,0.3613,0.353,0.3498,0.3439,0.3383,0.3349,0.3424,0.3372,0.3423,0.3504,0.3517,0.3531,0.3544,0.3577,0.3591,0.3427,0.3427,0.3427,0,0.3922,0.3904,0.3875,0.3854,0.3817,0.3762,0.3738,0.373,0.3658,0.3647,0.3632,0.3552,0.3488,0.3459,0.349,0.3456,0.3466,0.3436,0.3537,0.3548,0.3558,0.3589,0.3602,0.3435,0.3434,0.3433,0.3432,0,0.3963,0.3937,0.3937,0.3902,0.3881,0.3847,0.3815,0.3821,0.3806,0.3777,0.3767,0.3696,0.364,0.3638,0.3585,0.3624,0.3612,0.3557,0.3488,0.3585,0.3611,0.3623,0.3445,0.3443,0.344,0.3439,0,0,0.407,0.3988,0.3979,0.3928,0.388,0.3852,0.389,0.3872,0.3887,0.3874,0.3888,0.3845,0.3806,0.3768,0.3706,0.3726,0.3821,0.3692,0.3689,0.3723,0.3883,0.3775,0.3777,0.3792,0.3794,0.3795,0.3886,0,0.4088,0.4058,0.4015,0.3967,0.3918,0.3884,0.3923,0.3917,0.3929,0.3952,0.3918,0.3905,0.3859,0.3836,0.3856,0.3818,0.3854,0.3803,0.3785,0.3785,0.3675,0.3786,0.36,0.3655,0.3897,0.3898,0.39,0,0.4085,0.4062,0.403,0.394,0.3922,0.3918,0.3925,0.3941,0.3983,0.4,0.4003,0.3984,0.4,0.3956,0.3977,0.3954,0.3944,0.3929,0.393,0.3781,0.3697,0.3591,0.3666,0.3573,0.3917,0.3915,0.3914,0,0.4094,0.4028,0.4004,0.3973,0.3926,0.392,0.391,0.3947,0.3956,0.4024,0.4052,0.4069,0.4073,0.4082,0.4054,0.4035,0.409,0.4039,0.3939,0.3932,0.3741,0.3712,0.3712,0.4076,0.4076,0.4075,0.4075,0,0.4062,0.3998,0.4003,0.397,0.3951,0.3916,0.391,0.3938,0.3975,0.399,0.4055,0.4086,0.4112,0.4132,0.4111,0.4064,0.413,0.3981,0.395,0.3788,0.3764,0.3643,0.3601,0.4079,0.4078,0.4077,0.4077,0,0.3981,0.3991,0.3934,0.3933,0.3929,0.3906,0.3872,0.3883,0.3945,0.398,0.4006,0.4113,0.4157,0.4162,0.418,0.4111,0.3958,0.4044,0.3864,0.3809,0.3602,0.3574,0.3422,0.3323,0.3967,0.3965,0.3963,0,0.3903,0.3896,0.3919,0.3916,0.389,0.386,0.3856,0.387,0.3879,0.3979,0.4,0.4087,0.4121,0.4127,0.404,0.3993,0.3881,0.3778,0.3685,0.3589,0.3538,0.3427,0.3348,0.3518,0.3512,0.3508,0.3505,0,0.3781,0.3832,0.3834,0.3854,0.3841,0.3802,0.3783,0.3781,0.382,0.3863,0.3918,0.396,0.3996,0.3873,0.382,0.3758,0.358,0.3686,0.3625,0.3226,0.3065,0.2952,0.349,0.3466,0.347,0.3473,0.3475,0.3476,0.3712,0.3715,0.3783,0.3762,0.375,0.3707,0.3621,0.364,0.362,0.3609,0.3759,0.375,0.3713,0.3617,0.354,0.3273,0.3317,0.3136,0.3133,0.3047,0.2868,0.3334,0.3235,0.3237,0.3239,0.3241,0.3243,0,0.363,0.3665,0.367,0.3634,0.354,0.3582,0.354,0.3436,0.3352,0.344,0.344,0.3367,0.3236,0.3163,0.2905,0.2747,0.2632,0.2657,0.2475,0.2442,0.289,0.2785,0.2534,0.2534,0.2534,0.2534,0.2535,0.2535,0.3604,0.36,0.3603,0.343,0.337,0.3197,0.3133,0.3056,0.3063,0.2947,0.2888,0.293,0.2883,0.2691,0.2438,0.2366,0.2204,0.2063,0.2119,0.2456,0.25,0.2543,0.2437,0.2116,0.2116,0.1548,0.1543,0.154]},{"header":{"parameterUnit":"m.s-1","parameterCategory":2,"la1":30.2991,"la2":30.254,"lo1":-89.0895,"lo2":-89.0444,"dy":0.0017,"dx":0.0017,"nx":28,"ny":28,"refTime":"2024-10-10T21:00:00:Z","depth":"0","parameterNumber":3,"parameterNumberName":"V-component_of_CURRENTS"},"data":[0,0,0,0,0,0,0,0,0,0,0,0,0,0,0,0,0,0,0,0,0,0,0,0,0,0,0,0,0,0,0,0,0,0,0,0,0,0,0,0,0,0,0,0,0,0,0,0,0,0,0,0,0,0,0,0,0,0,-0.0263,-0.0262,0,-0.0215,-0.0215,-0.0215,-0.0195,-0.0195,-0.0195,-0.0195,-0.0179,-0.0178,-0.0178,0,0,0,0,0,0,0,0,0,0,0,0,0,-0.0293,-0.0293,-0.0263,-0.0262,-0.0261,-0.0216,-0.0215,-0.0215,-0.0195,-0.0195,-0.0195,-0.0195,-0.0179,-0.0178,-0.0178,0,0,0,0,0,0,0,0,0,0,0,0,0,-0.0268,-0.0293,-0.0263,-0.0244,-0.0242,-0.0216,-0.0215,-0.0215,-0.0195,-0.0195,-0.0195,-0.0195,-0.0179,-0.0178,-0.0178,-0.0179,0,0,-0.0176,-0.0176,0,0,0,0,0,0,0,0,-0.027,-0.0268,-0.0248,-0.0245,-0.0243,-0.0209,-0.0219,-0.0203,-0.0195,-0.0215,-0.0195,-0.0194,-0.019,-0.0189,-0.0183,-0.0178,-0.0177,-0.0176,-0.0176,-0.0176,-0.0176,0,0,0,0,0,0,0,-0.0272,-0.0269,-0.0247,-0.0247,-0.0244,-0.0223,-0.022,-0.0216,-0.0207,-0.0214,-0.0211,-0.0202,-0.0189,-0.0184,-0.0183,-0.0177,-0.0176,-0.0176,-0.0176,-0.0175,-0.0165,-0.0165,0,0,0,0,0,0,-0.0275,-0.0271,-0.0248,-0.0245,-0.0253,-0.0222,-0.0219,-0.0222,-0.0206,-0.0203,-0.0203,-0.0202,-0.0185,-0.0183,-0.0182,-0.0162,-0.0176,-0.0175,-0.0175,-0.0165,-0.0165,-0.0165,0,0,0,0,0,0,-0.0276,-0.0274,-0.025,-0.0254,-0.0249,-0.0222,-0.0225,-0.0221,-0.0213,-0.0197,-0.0195,-0.0198,-0.0184,-0.0183,-0.0172,-0.0162,-0.0175,-0.0175,-0.0165,-0.0165,-0.0165,-0.0135,0,0,0,0,0,0,-0.0278,-0.0275,-0.0286,-0.0255,-0.0249,-0.023,-0.0225,-0.022,-0.0207,-0.0205,-0.0193,-0.0191,-0.0184,-0.0173,-0.0171,-0.0162,-0.0174,-0.0165,-0.0165,-0.0165,-0.0136,-0.0134,-0.0132,0,0,0,0,0,-0.0279,-0.0294,-0.0287,-0.0284,-0.0263,-0.0229,-0.0224,-0.0206,-0.0207,-0.0199,-0.0191,-0.0191,-0.0172,-0.0172,-0.0171,-0.016,-0.0165,-0.0165,-0.0165,-0.0137,-0.0134,-0.0132,0,0,0,0,0,0,-0.0322,-0.0292,-0.0284,-0.0293,-0.0259,-0.0225,-0.0219,-0.0207,-0.0195,-0.0193,-0.0187,-0.0185,-0.0171,-0.0175,-0.0175,-0.016,-0.017,-0.017,-0.0149,-0.0147,-0.0145,-0.0132,-0.0174,0,0,0,0,0,-0.0334,-0.0336,-0.0295,-0.0304,-0.0283,-0.0252,-0.0239,-0.022,-0.02,-0.0194,-0.019,-0.0184,-0.0171,-0.0166,-0.0159,-0.0151,-0.0137,-0.0147,-0.0145,-0.0143,-0.0132,-0.0099,-0.0093,-0.0165,-0.0165,-0.0165,0,0,-0.0357,-0.0339,-0.0343,-0.0312,-0.0286,-0.0248,-0.0244,-0.0216,-0.0196,-0.0195,-0.0182,-0.0177,-0.0168,-0.0152,-0.0148,-0.0153,-0.0117,-0.0143,-0.0141,-0.0131,-0.0098,-0.0091,-0.0085,-0.0165,-0.0165,-0.0165,0,0,-0.0375,-0.0378,-0.0365,-0.0328,-0.0278,-0.0256,-0.0247,-0.0208,-0.0201,-0.0184,-0.0175,-0.016,-0.0157,-0.0136,-0.0128,-0.0114,-0.0107,-0.0124,-0.01,-0.0069,-0.0062,-0.0056,-0.0031,-0.0023,-0.0123,-0.0123,-0.0123,0,-0.0405,-0.0373,-0.0358,-0.0314,-0.0279,-0.0257,-0.0213,-0.0205,-0.0174,-0.016,-0.0178,-0.014,-0.0144,-0.0096,-0.01,-0.0107,-0.0093,-0.0106,-0.0064,-0.0057,-0.0051,-0.0028,-0.0019,-0.0122,-0.0122,-0.0122,-0.0122,0,-0.0382,-0.0353,-0.0338,-0.0279,-0.0248,-0.0208,-0.0172,-0.0161,-0.016,-0.014,-0.0106,-0.0103,-0.0075,-0.0081,-0.0091,-0.0048,-0.0053,-0.0062,-0.0064,-0.0042,-0.002,-0.0011,-0.012,-0.012,-0.0121,-0.0121,0,0,-0.0437,-0.0345,-0.0334,-0.028,-0.0216,-0.0179,-0.0157,-0.011,-0.0077,-0.0075,-0.0022,-0.0025,-0.0018,-0.0009,-0.001,0.0006,0.0043,-0.0018,-0.0017,0.0016,0.0111,0.0079,0.0085,0.0042,0.0044,0.0045,0.011,0,-0.0413,-0.0337,-0.0296,-0.021,-0.0152,-0.0117,-0.0089,-0.005,-0.0035,0.0012,0.0022,0.0063,0.0009,0.0033,0.0039,0.0062,0.0067,0.0026,0.0077,0.0078,0.0055,0.0094,0.0106,0.0162,0.0118,0.012,0.0121,0,-0.0367,-0.0324,-0.025,-0.0141,-0.0112,-0.0069,0.0003,0.0039,0.0092,0.0106,0.0141,0.015,0.0191,0.0132,0.0171,0.0148,0.0121,0.012,0.0122,0.009,0.0062,0.0132,0.018,0.0074,0.0134,0.0133,0.0132,0,-0.0362,-0.0265,-0.0212,-0.0174,-0.0077,-0.0038,0.0013,0.0069,0.0125,0.018,0.0232,0.0259,0.0311,0.0285,0.0254,0.0219,0.0297,0.0254,0.0198,0.0195,0.0215,0.0211,0.0177,0.0261,0.0261,0.0261,0.026,0,-0.0315,-0.0248,-0.0204,-0.0158,-0.0076,-0.0013,0.0084,0.0124,0.0213,0.0316,0.0292,0.0379,0.0349,0.0381,0.0314,0.0299,0.0343,0.0218,0.0217,0.0223,0.0219,0.0134,0.0052,0.0263,0.0262,0.0262,0.0262,0,-0.0262,-0.0245,-0.016,-0.0088,-0.0058,0.001,0.0151,0.0231,0.0284,0.0423,0.0451,0.0508,0.0553,0.0507,0.0503,0.0401,0.0311,0.0338,0.034,0.0336,0.0155,0.0074,0.0045,-0.0005,0.0295,0.0294,0.0294,0,-0.0211,-0.0182,-0.0116,-0.0067,-0.002,0.0081,0.0167,0.0257,0.0358,0.0512,0.06,0.0668,0.0753,0.0723,0.0581,0.0484,0.0347,0.0366,0.0283,0.0159,0.007,0.0018,-0.0026,0.0326,0.0326,0.0326,0.0326,0,-0.0122,-0.0127,-0.0073,0.0007,0.0094,0.0211,0.0344,0.0427,0.0558,0.0675,0.0839,0.0917,0.0893,0.0829,0.0661,0.0556,0.028,0.0359,0.0252,0.0106,0.0033,-0.002,0.0257,0.0326,0.0326,0.0326,0.0326,0.0326,-0.006,-0.0021,0.0018,0.0114,0.0215,0.0355,0.046,0.0605,0.0779,0.0993,0.1035,0.1219,0.1051,0.0849,0.0661,0.0308,0.0294,0.0186,0.0106,0.0073,-0.0008,0.0252,0.0297,0.0296,0.0296,0.0296,0.0296,0,0.0017,0.0056,0.0139,0.0251,0.0388,0.0417,0.0598,0.0714,0.0923,0.116,0.1319,0.1407,0.1162,0.087,0.0382,0.0111,0.0011,-0.0038,-0.0101,-0.013,0.0138,0.0104,0.0086,0.0086,0.0086,0.0086,0.0086,0.0086,0.0059,0.0139,0.0176,0.039,0.0483,0.0651,0.0752,0.0914,0.1104,0.1413,0.1609,0.174,0.1507,0.0617,0.0025,-0.0118,-0.0307,-0.0348,-0.0443,-0.027,-0.0255,-0.024,-0.029,-0.039,-0.0391,-0.0656,-0.0659,-0.0661]}],[{"header":{"parameterUnit":"m.s-1","parameterCategory":2,"la1":30.2991,"la2":30.254,"lo1":-89.0895,"lo2":-89.0444,"dy":0.0017,"dx":0.0017,"nx":28,"ny":28,"refTime":"2024-10-10T21:00:00:Z","depth":"2","parameterNumber":2,"parameterNumberName":"U-component_of_CURRENTS"},"data":[0,0,0,0,0,0,0,0,0,0,0,0,0,0,0,0,0,0,0,0,0,0,0,0,0,0,0,0,0,0,0,0,0,0,0,0,0,0,0,0,0,0,0,0,0,0,0,0,0,0,0,0,0,0,0,0,0,0,0.208,0.208,0,0.2059,0.2058,0.2058,0.2048,0.2048,0.2048,0.2049,0.2076,0.2076,0.2077,0,0,0,0,0,0,0,0,0,0,0,0,0,0.2126,0.2125,0.208,0.208,0.208,0.2059,0.2058,0.2058,0.2048,0.2048,0.2048,0.2049,0.2076,0.2076,0.2077,0,0,0,0,0,0,0,0,0,0,0,0,0,0.2103,0.2125,0.208,0.2075,0.2074,0.2059,0.2058,0.2057,0.2048,0.2048,0.2049,0.2049,0.2076,0.2076,0.2077,0.2072,0,0,0.2079,0.2079,0,0,0,0,0,0,0,0,0.2104,0.2101,0.2075,0.2075,0.2075,0.2059,0.2085,0.2066,0.2048,0.2054,0.2049,0.2049,0.2077,0.2077,0.2067,0.2073,0.2074,0.2079,0.2079,0.208,0.208,0,0,0,0,0,0,0,0.2106,0.2102,0.2068,0.2076,0.2075,0.2079,0.2076,0.2081,0.2062,0.2054,0.2054,0.2056,0.2076,0.2066,0.2068,0.2075,0.2079,0.208,0.208,0.208,0.215,0.2151,0,0,0,0,0,0,0.2113,0.2103,0.2069,0.2068,0.2094,0.2078,0.2074,0.2061,0.2061,0.2061,0.2056,0.2056,0.2065,0.2067,0.2069,0.214,0.208,0.208,0.2081,0.2149,0.215,0.2152,0,0,0,0,0,0,0.2114,0.211,0.207,0.2089,0.2084,0.2077,0.2062,0.206,0.207,0.2062,0.2064,0.207,0.2065,0.2068,0.2091,0.2139,0.2081,0.2081,0.2147,0.2149,0.2151,0.2234,0,0,0,0,0,0,0.2115,0.211,0.2101,0.2088,0.2084,0.2071,0.2062,0.206,0.2071,0.2071,0.2074,0.2076,0.2066,0.209,0.2091,0.2138,0.2082,0.2145,0.2148,0.215,0.223,0.2239,0.2247,0,0,0,0,0,0.2116,0.2097,0.2101,0.2097,0.2072,0.2072,0.207,0.2064,0.2072,0.2074,0.2082,0.2077,0.2109,0.2091,0.2093,0.2141,0.2144,0.2147,0.215,0.2226,0.2237,0.2247,0,0,0,0,0,0,0.2098,0.2094,0.2098,0.2074,0.2083,0.2072,0.2081,0.2078,0.2084,0.2098,0.2087,0.2089,0.2133,0.2119,0.21,0.2169,0.2129,0.2133,0.2186,0.2196,0.2205,0.22,0.2082,0,0,0,0,0,0.2096,0.2083,0.209,0.207,0.2092,0.2093,0.2095,0.2096,0.2101,0.2104,0.2104,0.2117,0.2144,0.2155,0.2165,0.2195,0.2195,0.2229,0.2238,0.2245,0.2242,0.228,0.2292,0.2163,0.2163,0.2163,0,0,0.2081,0.2077,0.2069,0.2067,0.2084,0.2103,0.2096,0.2114,0.2121,0.2109,0.2126,0.2148,0.2158,0.2198,0.2216,0.2194,0.2286,0.2249,0.2256,0.2248,0.2284,0.2297,0.2308,0.2165,0.2164,0.2164,0,0,0.2075,0.2059,0.2077,0.2093,0.2125,0.2116,0.213,0.2143,0.215,0.2168,0.2178,0.222,0.2235,0.2257,0.2272,0.2331,0.2333,0.235,0.2389,0.2427,0.2437,0.2447,0.2483,0.2495,0.2351,0.2352,0.2352,0,0.2073,0.2073,0.2079,0.2118,0.213,0.213,0.2163,0.2162,0.2169,0.2194,0.2185,0.2256,0.2262,0.2332,0.2355,0.2353,0.2374,0.2351,0.2439,0.2448,0.2456,0.249,0.2502,0.2356,0.2355,0.2355,0.2355,0,0.2094,0.2104,0.2122,0.2158,0.2172,0.219,0.221,0.222,0.2227,0.2241,0.2313,0.2327,0.2369,0.2394,0.2391,0.2472,0.247,0.2449,0.2413,0.2474,0.2506,0.2518,0.2362,0.2361,0.2359,0.2358,0,0,0.2057,0.2127,0.2126,0.2164,0.2196,0.2206,0.2234,0.2263,0.229,0.2321,0.2374,0.2433,0.246,0.2477,0.2498,0.2534,0.2616,0.2522,0.2522,0.256,0.2714,0.262,0.2623,0.2622,0.2624,0.2625,0.272,0,0.2076,0.2131,0.2157,0.2198,0.2239,0.2258,0.2273,0.2305,0.2327,0.2369,0.2432,0.2492,0.2487,0.2531,0.2566,0.2612,0.2647,0.2593,0.2646,0.2647,0.2558,0.2632,0.2417,0.2474,0.273,0.2732,0.2733,0,0.209,0.2119,0.2167,0.2232,0.2255,0.2272,0.2306,0.2335,0.2402,0.2439,0.2519,0.2553,0.2644,0.261,0.2714,0.2688,0.2702,0.2723,0.2727,0.2611,0.2573,0.245,0.2484,0.2752,0.275,0.2749,0.2748,0,0.2032,0.2125,0.2148,0.217,0.2236,0.2269,0.2308,0.2365,0.2404,0.2507,0.2546,0.2646,0.2702,0.2752,0.2779,0.2767,0.2868,0.2851,0.2779,0.2773,0.2581,0.2554,0.2901,0.2901,0.2901,0.2901,0.29,0,0.2001,0.2035,0.2135,0.2131,0.219,0.2266,0.2319,0.2373,0.2459,0.2516,0.2594,0.2636,0.2739,0.2791,0.2814,0.2832,0.2897,0.2798,0.2794,0.2605,0.258,0.28,0.2787,0.2904,0.2903,0.2903,0.2902,0,0.1928,0.1981,0.2034,0.2116,0.2159,0.2209,0.2332,0.2367,0.2461,0.2536,0.2579,0.2668,0.275,0.2812,0.2897,0.2864,0.2897,0.2872,0.2644,0.2609,0.2775,0.2766,0.2835,0.2833,0.2831,0.2829,0.2827,0,0.1897,0.1907,0.2003,0.204,0.2085,0.2182,0.2233,0.2357,0.2406,0.2533,0.2559,0.2661,0.2685,0.2775,0.2769,0.2804,0.286,0.2599,0.2519,0.2781,0.277,0.2764,0.2757,0.2317,0.2311,0.2307,0.2303,0,0.1831,0.1861,0.1873,0.196,0.2029,0.2103,0.2204,0.2228,0.2363,0.2417,0.2467,0.25,0.2585,0.2511,0.2552,0.2538,0.2582,0.2506,0.2854,0.2353,0.2296,0.2284,0.2294,0.2263,0.2267,0.227,0.2272,0.2274,0.1773,0.1781,0.1805,0.1884,0.1963,0.2006,0.2008,0.209,0.2135,0.2176,0.2289,0.2271,0.2319,0.2261,0.2209,0.2182,0.2365,0.2263,0.2276,0.2294,0.2202,0.2143,0.2066,0.2069,0.2071,0.2073,0.2075,0,0.1711,0.1722,0.1756,0.1814,0.1845,0.1934,0.197,0.1919,0.1912,0.1984,0.2007,0.1846,0.1814,0.1875,0.1771,0.1778,0.1755,0.1708,0.1662,0.1705,0.1742,0.162,0.1331,0.1328,0.1326,0.1324,0,0,0.1679,0.165,0.1663,0.1684,0.1741,0.1718,0.1701,0.1643,0.164,0.1563,0.1561,0.1698,0.1795,0.1523,0.1507,0.1395,0.153,0.1339,0.1941,0.1927,0.1961,0.2073,0.1936,0,0,0,0,0]},{"header":{"parameterUnit":"m.s-1","parameterCategory":2,"la1":30.2991,"la2":30.254,"lo1":-89.0895,"lo2":-89.0444,"dy":0.0017,"dx":0.0017,"nx":28,"ny":28,"refTime":"2024-10-10T21:00:00:Z","depth":"2","parameterNumber":3,"parameterNumberName":"V-component_of_CURRENTS"},"data":[0,0,0,0,0,0,0,0,0,0,0,0,0,0,0,0,0,0,0,0,0,0,0,0,0,0,0,0,0,0,0,0,0,0,0,0,0,0,0,0,0,0,0,0,0,0,0,0,0,0,0,0,0,0,0,0,0,0,0.0196,0.0196,0,0.019,0.019,0.019,0.017,0.017,0.0169,0.0169,0.0143,0.0143,0.0143,0,0,0,0,0,0,0,0,0,0,0,0,0,0.0161,0.0162,0.0196,0.0196,0.0196,0.019,0.019,0.019,0.017,0.017,0.0169,0.0169,0.0143,0.0143,0.0143,0,0,0,0,0,0,0,0,0,0,0,0,0,0.0167,0.0162,0.0196,0.0186,0.0185,0.019,0.019,0.0189,0.017,0.017,0.0169,0.0168,0.0144,0.0143,0.0143,0.0151,0,0,0.0141,0.0141,0,0,0,0,0,0,0,0,0.0167,0.0168,0.0187,0.0186,0.0185,0.0181,0.0168,0.0176,0.017,0.0175,0.0169,0.0168,0.0155,0.0153,0.0153,0.015,0.0149,0.0141,0.0141,0.0141,0.014,0,0,0,0,0,0,0,0.0166,0.0168,0.0193,0.0187,0.0186,0.0172,0.0172,0.0169,0.0167,0.0175,0.0173,0.0174,0.0154,0.0153,0.0152,0.0148,0.0141,0.0141,0.014,0.014,0.0137,0.0137,0,0,0,0,0,0,0.0171,0.0168,0.0193,0.0193,0.0175,0.0173,0.0173,0.0182,0.0168,0.0165,0.0174,0.0173,0.0155,0.0153,0.0151,0.0155,0.0141,0.014,0.014,0.0137,0.0137,0.0137,0,0,0,0,0,0,0.017,0.0173,0.0193,0.018,0.0181,0.0174,0.0184,0.0182,0.0179,0.0168,0.0165,0.0173,0.0154,0.0152,0.015,0.0154,0.014,0.0139,0.0136,0.0137,0.0137,0.0166,0,0,0,0,0,0,0.0169,0.0173,0.0178,0.0181,0.0183,0.0202,0.0185,0.0183,0.0181,0.0179,0.0166,0.0163,0.0153,0.0151,0.015,0.0153,0.0139,0.0136,0.0137,0.0137,0.0165,0.0168,0.017,0,0,0,0,0,0.0168,0.0186,0.0179,0.0181,0.0191,0.0203,0.0203,0.0194,0.0181,0.0187,0.0175,0.0163,0.0152,0.0151,0.0149,0.0153,0.0136,0.0136,0.0137,0.0164,0.0167,0.017,0,0,0,0,0,0,0.0176,0.0186,0.0178,0.0198,0.0199,0.02,0.0202,0.0196,0.0191,0.0185,0.017,0.0167,0.0165,0.0156,0.0155,0.0152,0.0141,0.0141,0.0162,0.0165,0.0167,0.0182,0.0139,0,0,0,0,0,0.0179,0.0196,0.0197,0.0213,0.021,0.0203,0.0204,0.0202,0.0199,0.0196,0.0186,0.0174,0.0167,0.0164,0.0157,0.016,0.0148,0.0159,0.0161,0.0163,0.0174,0.0162,0.0165,0.0139,0.0139,0.0139,0,0,0.0192,0.0195,0.0208,0.0216,0.0211,0.0225,0.0203,0.021,0.0224,0.0194,0.0203,0.0183,0.0169,0.017,0.0168,0.0163,0.0162,0.0164,0.0166,0.0175,0.0163,0.0165,0.0168,0.0139,0.0139,0.0139,0,0,0.0221,0.022,0.0238,0.0239,0.0236,0.024,0.0243,0.024,0.0236,0.0245,0.0221,0.0207,0.0201,0.019,0.0184,0.0197,0.0175,0.0188,0.0214,0.0202,0.0204,0.0206,0.0186,0.0185,0.019,0.019,0.019,0,0.0224,0.0253,0.0245,0.0254,0.0262,0.0249,0.0269,0.027,0.027,0.027,0.0253,0.0234,0.0215,0.0216,0.0213,0.0203,0.0189,0.0204,0.0206,0.0207,0.0209,0.0187,0.0187,0.0192,0.0191,0.0191,0.0191,0,0.0274,0.0281,0.0289,0.0303,0.0312,0.0328,0.0328,0.0336,0.0327,0.0323,0.0315,0.0285,0.0275,0.0258,0.0239,0.0236,0.0219,0.0209,0.02,0.0213,0.0189,0.0188,0.0194,0.0193,0.0193,0.0192,0,0,0.0316,0.032,0.0326,0.0329,0.0338,0.0356,0.0378,0.0395,0.0416,0.0391,0.0406,0.0368,0.0339,0.0329,0.0294,0.0276,0.0259,0.0246,0.0244,0.0229,0.0226,0.0202,0.0198,0.0247,0.0247,0.0247,0.0202,0,0.035,0.0379,0.038,0.0415,0.0425,0.0423,0.0453,0.0466,0.0466,0.0478,0.0429,0.0429,0.037,0.0362,0.0332,0.0284,0.0259,0.0272,0.0213,0.0212,0.0192,0.0197,0.0212,0.0172,0.0201,0.02,0.02,0,0.04,0.0411,0.0445,0.0463,0.0471,0.0495,0.0542,0.0569,0.0576,0.0574,0.0551,0.0513,0.0475,0.0426,0.0347,0.0357,0.0294,0.025,0.0247,0.0217,0.0187,0.0165,0.0169,0.0198,0.0198,0.0198,0.0199,0,0.0448,0.0459,0.049,0.0496,0.0521,0.0539,0.0566,0.0592,0.0631,0.0633,0.065,0.0592,0.0574,0.0489,0.0378,0.0366,0.0292,0.0267,0.0185,0.0182,0.0181,0.0178,0.0215,0.0215,0.0215,0.0215,0.0215,0,0.0491,0.0512,0.0507,0.0532,0.0575,0.0579,0.0643,0.0664,0.0705,0.0761,0.0697,0.0715,0.059,0.0523,0.0412,0.0295,0.0316,0.0194,0.0173,0.019,0.0188,0.0202,0.0202,0.0213,0.0214,0.0214,0.0214,0,0.0534,0.0534,0.0567,0.059,0.0596,0.0634,0.0696,0.0756,0.0779,0.0849,0.0853,0.0814,0.0731,0.0593,0.0464,0.0352,0.0238,0.0189,0.021,0.0192,0.0125,0.0126,0.0099,0.0098,0.0097,0.0096,0.0095,0,0.0556,0.0578,0.0615,0.0642,0.0648,0.0695,0.0749,0.0793,0.0861,0.0913,0.0955,0.0892,0.086,0.065,0.0454,0.0262,0.0234,0.0141,0.0119,0.0133,0.0115,0.0118,0.012,0.0123,0.0122,0.0122,0.0122,0,0.0601,0.0618,0.0657,0.0707,0.0751,0.0812,0.0879,0.094,0.1012,0.1059,0.1108,0.1082,0.089,0.07,0.0434,0.03,0.0171,0.0128,0.0149,0.0149,0.0151,0.0135,0.0137,0.0119,0.0119,0.0119,0.0119,0.0119,0.0638,0.0674,0.0727,0.0772,0.0832,0.0912,0.0977,0.1058,0.1155,0.1229,0.1209,0.1168,0.0962,0.0619,0.0392,0.015,0.0163,0.0068,0.0071,0.0073,0.0084,0.0084,0.0041,0.0041,0.004,0.004,0.004,0,0.0667,0.0716,0.0781,0.0847,0.0921,0.0937,0.1058,0.1126,0.1229,0.1286,0.1308,0.1099,0.0888,0.0645,0.0291,0.0081,0.0067,0.0006,0.004,0.0044,0.0048,0.0058,0.0007,0.0006,0.0005,0.0005,0,0,0.0685,0.0756,0.079,0.0897,0.0948,0.1048,0.1116,0.1215,0.128,0.1313,0.1289,0.1245,0.0958,0.0694,0.0413,0.021,0.0172,0.0165,0.0214,0.0292,0.0298,0.0105,0.0129,0,0,0,0,0]}],[{"header":{"parameterUnit":"m.s-1","parameterCategory":2,"la1":30.2991,"la2":30.254,"lo1":-89.0895,"lo2":-89.0444,"dy":0.0017,"dx":0.0017,"nx":28,"ny":28,"refTime":"2024-10-10T21:00:00:Z","depth":"4","parameterNumber":2,"parameterNumberName":"U-component_of_CURRENTS"},"data":[0,0,0,0,0,0,0,0,0,0,0,0,0,0,0,0,0,0,0,0,0,0,0,0,0,0,0,0,0,0,0,0,0,0,0,0,0,0,0,0,0,0,0,0,0,0,0,0,0,0,0,0,0,0,0,0,0,0,0.1051,0.1052,0,0.1138,0.1139,0.114,0.12,0.1201,0.1201,0.1202,0.1277,0.1279,0.128,0,0,0,0,0,0,0,0,0,0,0,0,0,0.0977,0.0978,0.1051,0.1052,0.1053,0.1138,0.1139,0.114,0.12,0.1201,0.1201,0.1202,0.1277,0.1278,0.128,0,0,0,0,0,0,0,0,0,0,0,0,0,0.103,0.0978,0.1051,0.1095,0.11,0.1138,0.1139,0.1141,0.12,0.1201,0.1202,0.1202,0.1276,0.1278,0.128,0.1275,0,0,0.1287,0.1288,0,0,0,0,0,0,0,0,0.1026,0.1032,0.1087,0.1092,0.1097,0.1161,0.1141,0.1186,0.12,0.116,0.1202,0.1203,0.1238,0.1243,0.1255,0.1279,0.1282,0.1287,0.1288,0.1289,0.129,0,0,0,0,0,0,0,0.1023,0.1029,0.1084,0.1088,0.1095,0.1125,0.1133,0.115,0.1191,0.1163,0.1168,0.1181,0.124,0.1253,0.1257,0.1283,0.1287,0.1289,0.129,0.1291,0.1398,0.14,0,0,0,0,0,0,0.1013,0.1025,0.1081,0.1086,0.1066,0.1125,0.1134,0.1138,0.1191,0.1201,0.118,0.1183,0.1249,0.1255,0.126,0.1332,0.1289,0.1291,0.1293,0.1397,0.1399,0.14,0,0,0,0,0,0,0.101,0.1016,0.1077,0.106,0.107,0.1126,0.113,0.1139,0.1176,0.1204,0.1213,0.1209,0.125,0.1257,0.1302,0.1333,0.1292,0.1294,0.1395,0.1397,0.14,0.1428,0,0,0,0,0,0,0.1008,0.1015,0.1023,0.1059,0.1071,0.1111,0.1129,0.114,0.1182,0.1187,0.1232,0.1239,0.1251,0.1299,0.1304,0.1335,0.1296,0.1393,0.1396,0.1399,0.1425,0.1431,0.1436,0,0,0,0,0,0.1005,0.1008,0.1022,0.103,0.1077,0.1111,0.112,0.1162,0.1182,0.1198,0.1237,0.1239,0.1322,0.1302,0.1308,0.134,0.1392,0.1395,0.1399,0.1423,0.143,0.1436,0,0,0,0,0,0,0.098,0.1015,0.1032,0.1046,0.1082,0.1123,0.1149,0.1172,0.1214,0.1231,0.1253,0.1263,0.1318,0.1323,0.1301,0.1381,0.1359,0.1364,0.1375,0.1382,0.1388,0.1386,0.1298,0,0,0,0,0,0.0977,0.0992,0.1029,0.1045,0.1066,0.1111,0.1135,0.1163,0.1202,0.1223,0.1257,0.1296,0.1333,0.1353,0.1385,0.1419,0.1429,0.1446,0.1452,0.1456,0.1461,0.1507,0.1517,0.1412,0.1412,0.1412,0,0,0.0969,0.0996,0.1002,0.1042,0.1078,0.1109,0.1128,0.1172,0.1203,0.1223,0.1284,0.1318,0.1348,0.1398,0.1422,0.1407,0.1491,0.1461,0.1464,0.1467,0.1512,0.1522,0.1531,0.1414,0.1414,0.1414,0,0,0.0971,0.0991,0.1011,0.1042,0.11,0.1123,0.1139,0.1194,0.1227,0.1279,0.1311,0.1362,0.1413,0.1445,0.1464,0.1516,0.1523,0.1533,0.1555,0.16,0.1609,0.1616,0.1635,0.1645,0.1531,0.1531,0.1531,0,0.0965,0.0994,0.1023,0.1058,0.1088,0.113,0.1162,0.1196,0.126,0.1295,0.1305,0.1413,0.1435,0.1499,0.1521,0.1528,0.1549,0.1524,0.1606,0.1614,0.1622,0.1639,0.1649,0.1532,0.1532,0.1532,0.1532,0,0.098,0.1016,0.1035,0.1088,0.1118,0.1155,0.1202,0.1245,0.129,0.133,0.1416,0.1457,0.1521,0.1539,0.1545,0.1617,0.1612,0.161,0.1585,0.1634,0.1649,0.1659,0.1535,0.1534,0.1534,0.1533,0,0,0.0938,0.1026,0.1036,0.1073,0.114,0.1165,0.122,0.1281,0.1329,0.1397,0.1464,0.1534,0.1572,0.1597,0.1622,0.1657,0.1721,0.1658,0.166,0.1669,0.1813,0.1686,0.1684,0.174,0.1742,0.1744,0.1799,0,0.0949,0.1007,0.1051,0.1111,0.1146,0.1204,0.1249,0.1312,0.137,0.1443,0.1507,0.1583,0.1589,0.1633,0.1671,0.172,0.175,0.1705,0.1771,0.1773,0.1647,0.1692,0.175,0.1806,0.1809,0.181,0.1811,0,0.0945,0.0992,0.1047,0.1135,0.1157,0.1203,0.1286,0.1336,0.1436,0.1487,0.1572,0.1626,0.1709,0.1699,0.1799,0.1775,0.1798,0.1819,0.1822,0.1699,0.1663,0.1751,0.1829,0.1828,0.1826,0.1825,0.1824,0,0.0888,0.0986,0.1029,0.1058,0.1159,0.1211,0.127,0.1363,0.1416,0.1531,0.1586,0.1684,0.1752,0.1805,0.1857,0.1842,0.1948,0.1929,0.183,0.1821,0.1906,0.1897,0.1988,0.1988,0.1988,0.1988,0.1988,0,0.0862,0.0905,0.102,0.1044,0.1114,0.1198,0.1279,0.1347,0.1457,0.1522,0.1617,0.1675,0.1786,0.1856,0.1882,0.1885,0.1973,0.1839,0.1832,0.1915,0.1907,0.1912,0.1902,0.199,0.199,0.1989,0.1989,0,0.079,0.0861,0.0922,0.1044,0.109,0.1141,0.1282,0.1338,0.1448,0.1535,0.158,0.1702,0.1785,0.1866,0.1955,0.1907,0.1928,0.1905,0.1988,0.1983,0.1762,0.1754,0.1792,0.1788,0.1785,0.1782,0.178,0,0.0756,0.0783,0.0902,0.0948,0.1017,0.1116,0.1183,0.1316,0.1377,0.1531,0.1564,0.1688,0.1754,0.1778,0.1862,0.1899,0.1878,0.1866,0.1807,0.1755,0.1745,0.1742,0.1738,0.1774,0.1774,0.1773,0.1772,0,0.0701,0.0747,0.0798,0.0885,0.097,0.1039,0.1154,0.1188,0.1334,0.1448,0.1513,0.1561,0.1643,0.1702,0.1747,0.1768,0.1861,0.183,0.1836,0.1781,0.1735,0.1727,0.1727,0.176,0.1762,0.1763,0.1764,0,0.0666,0.0678,0.0749,0.0822,0.0906,0.0949,0.1014,0.1106,0.118,0.1361,0.1378,0.1505,0.1625,0.1635,0.1677,0.1688,0.1657,0.1593,0.1611,0.1624,0.1543,0.1458,0.1396,0,0,0,0,0,0.0636,0.0642,0.0691,0.0756,0.0828,0.0879,0.0991,0.1061,0.1207,0.1218,0.1298,0.1367,0.1426,0.1491,0.1471,0.1594,0.1658,0.1561,0.1591,0.1696,0.171,0.163,0,0,0,0,0,0,0.0619,0.065,0.0661,0.0686,0.072,0.0788,0.0851,0.0946,0.0964,0.1116,0.1162,0.1273,0.1358,0.1429,0.1443,0.1463,0.1449,0.1647,0.1643,0.1689,0.1701,0.1712,0.1634,0,0,0,0,0]},{"header":{"parameterUnit":"m.s-1","parameterCategory":2,"la1":30.2991,"la2":30.254,"lo1":-89.0895,"lo2":-89.0444,"dy":0.0017,"dx":0.0017,"nx":28,"ny":28,"refTime":"2024-10-10T21:00:00:Z","depth":"4","parameterNumber":3,"parameterNumberName":"V-component_of_CURRENTS"},"data":[0,0,0,0,0,0,0,0,0,0,0,0,0,0,0,0,0,0,0,0,0,0,0,0,0,0,0,0,0,0,0,0,0,0,0,0,0,0,0,0,0,0,0,0,0,0,0,0,0,0,0,0,0,0,0,0,0,0,0.0248,0.0248,0,0.0234,0.0234,0.0234,0.0224,0.0224,0.0224,0.0224,0.0218,0.0218,0.0218,0,0,0,0,0,0,0,0,0,0,0,0,0,0.0229,0.023,0.0248,0.0248,0.0248,0.0234,0.0234,0.0234,0.0224,0.0224,0.0224,0.0223,0.0218,0.0218,0.0218,0,0,0,0,0,0,0,0,0,0,0,0,0,0.0229,0.023,0.0248,0.0241,0.024,0.0234,0.0234,0.0234,0.0224,0.0224,0.0224,0.0223,0.0218,0.0218,0.0218,0.0222,0,0,0.0218,0.0218,0,0,0,0,0,0,0,0,0.0229,0.023,0.0242,0.0241,0.024,0.023,0.0226,0.023,0.0224,0.023,0.0224,0.0223,0.0223,0.0223,0.0221,0.0221,0.0221,0.0218,0.0218,0.0218,0.0218,0,0,0,0,0,0,0,0.0229,0.023,0.0243,0.0242,0.0241,0.0226,0.0226,0.0226,0.0228,0.023,0.0229,0.0227,0.0223,0.0221,0.0221,0.0221,0.0218,0.0218,0.0218,0.0218,0.0226,0.0226,0,0,0,0,0,0,0.0232,0.023,0.0243,0.0242,0.0234,0.0226,0.0226,0.0234,0.0228,0.0227,0.0227,0.0227,0.0221,0.0221,0.022,0.0233,0.0218,0.0218,0.0218,0.0226,0.0226,0.0226,0,0,0,0,0,0,0.0232,0.0234,0.0244,0.0235,0.0235,0.0227,0.0235,0.0234,0.0234,0.0226,0.0225,0.0229,0.0221,0.022,0.0225,0.0232,0.0218,0.0218,0.0225,0.0226,0.0226,0.0253,0,0,0,0,0,0,0.0232,0.0234,0.024,0.0236,0.0236,0.0246,0.0235,0.0234,0.0233,0.0232,0.0227,0.0226,0.0221,0.0226,0.0225,0.0232,0.0218,0.0225,0.0225,0.0226,0.0251,0.0254,0.0256,0,0,0,0,0,0.0231,0.0244,0.0241,0.0242,0.0245,0.0246,0.0245,0.0238,0.0233,0.0237,0.0233,0.0227,0.0228,0.0226,0.0226,0.0232,0.0225,0.0225,0.0226,0.025,0.0253,0.0256,0,0,0,0,0,0,0.0238,0.0244,0.0241,0.0254,0.0251,0.0245,0.0246,0.0241,0.0241,0.0241,0.0232,0.0232,0.0237,0.0231,0.0229,0.0235,0.0224,0.0225,0.0243,0.0246,0.0248,0.0252,0.0218,0,0,0,0,0,0.0243,0.0256,0.0253,0.0263,0.0262,0.0254,0.0253,0.025,0.0248,0.0247,0.0244,0.024,0.0239,0.024,0.0237,0.0244,0.0223,0.0247,0.0249,0.0251,0.0253,0.0227,0.0226,0.0228,0.0228,0.0228,0,0,0.0252,0.0253,0.0262,0.0265,0.0262,0.027,0.0254,0.0257,0.0265,0.0248,0.0258,0.0249,0.0242,0.0248,0.0249,0.0244,0.0238,0.0251,0.0253,0.0255,0.0227,0.0227,0.0227,0.0228,0.0228,0.0228,0,0,0.0271,0.0273,0.0288,0.0287,0.0284,0.0282,0.0284,0.028,0.0279,0.0286,0.0274,0.0268,0.0271,0.0264,0.0262,0.0275,0.0251,0.0275,0.0291,0.0265,0.0265,0.0264,0.0233,0.0229,0.0276,0.0277,0.0277,0,0.0276,0.0297,0.0291,0.03,0.0303,0.029,0.0304,0.0303,0.0302,0.0302,0.0295,0.0286,0.0279,0.0281,0.0284,0.028,0.0259,0.0282,0.0268,0.0267,0.0266,0.0233,0.0229,0.0278,0.0278,0.0278,0.0277,0,0.0307,0.0319,0.0326,0.0337,0.034,0.0349,0.0346,0.035,0.0345,0.034,0.0337,0.0321,0.0315,0.031,0.0303,0.0295,0.028,0.0273,0.0261,0.0267,0.0233,0.0228,0.028,0.0279,0.0279,0.0279,0,0,0.0331,0.0346,0.0349,0.0358,0.0359,0.0368,0.038,0.0387,0.0397,0.0382,0.0387,0.0374,0.0355,0.0351,0.0334,0.0311,0.0282,0.0292,0.029,0.0261,0.0218,0.0208,0.0201,0.0271,0.0271,0.0271,0.0196,0,0.0355,0.0382,0.0384,0.0412,0.0423,0.0416,0.0431,0.0434,0.0429,0.043,0.0401,0.0401,0.0374,0.0372,0.0343,0.0301,0.0271,0.0302,0.0217,0.0214,0.0205,0.0196,0.0269,0.0192,0.0191,0.019,0.0189,0,0.0382,0.0398,0.0429,0.0447,0.0453,0.047,0.0487,0.0501,0.0494,0.0488,0.0471,0.0445,0.0415,0.039,0.0311,0.0332,0.0278,0.0238,0.0234,0.0213,0.0195,0.0185,0.018,0.018,0.0181,0.0182,0.0182,0,0.04,0.0427,0.0455,0.0461,0.0483,0.0498,0.0514,0.0519,0.0538,0.0528,0.053,0.0481,0.0464,0.039,0.0307,0.0308,0.0212,0.0202,0.0137,0.0135,0.0155,0.0156,0.0138,0.0138,0.0139,0.0139,0.0139,0,0.0416,0.0439,0.0468,0.0485,0.0523,0.0528,0.0568,0.0573,0.0587,0.061,0.0564,0.056,0.0464,0.0398,0.0314,0.021,0.0213,0.0136,0.0115,0.0167,0.0171,0.015,0.0153,0.0136,0.0137,0.0137,0.0138,0,0.0422,0.0442,0.048,0.0518,0.0532,0.0562,0.0611,0.0641,0.0646,0.0671,0.0671,0.0619,0.0534,0.0426,0.0304,0.0227,0.0126,0.0087,0.0147,0.0132,0.0061,0.0066,0.0003,0.0002,0.0002,0.0001,0.0,0,0.0422,0.0444,0.0506,0.0539,0.0558,0.0606,0.0644,0.0671,0.0704,0.0706,0.0719,0.0648,0.0596,0.0415,0.0299,0.0128,0.0105,0.0043,0.0051,0.0061,0.0048,0.0054,0.0059,-0.0001,-0.0001,-0.0001,-0.0002,0,0.0426,0.0456,0.0493,0.0564,0.0614,0.0668,0.072,0.0745,0.0776,0.078,0.0755,0.066,0.056,0.0419,0.0286,0.0165,0.0078,0.0034,0.0035,0.0042,0.0055,0.0044,0.005,-0.0004,-0.0004,-0.0004,-0.0004,0,0.0432,0.046,0.0521,0.0581,0.0649,0.0708,0.0735,0.077,0.0799,0.0798,0.0788,0.0679,0.062,0.0437,0.0317,0.0195,0.016,0.0112,0.0108,0.011,0.0163,0.0197,0.0161,0,0,0,0,0,0.0432,0.0471,0.0532,0.0603,0.0674,0.0714,0.0779,0.0803,0.0826,0.0815,0.0804,0.0711,0.053,0.0456,0.0332,0.0292,0.0133,0.014,0.0075,-0.002,-0.0017,0.0026,0,0,0,0,0,0,0.0434,0.0492,0.0529,0.0613,0.0663,0.074,0.0784,0.0802,0.0796,0.0798,0.0711,0.0667,0.0499,0.0601,0.0325,0.0289,0.0226,0.0061,0.0058,-0.0022,-0.0019,-0.0017,0.0029,0,0,0,0,0]}]]